This is the latest recevied weather packets stored in our database for station/object SQ5DCP-1. If no packets are shown the sender has not sent any weather packets the latest 10 day(s).
| Time | Temp. | Humidity | Pressure | Rain* | Wind** | Luminosity | Snow |
|---|---|---|---|---|---|---|---|
| 1788628829 | 17.22° C | 62% | 1015.7 hPa | 0 mm | - | - | - |
| 1788628527 | 17.22° C | 62% | 1015.8 hPa | 0 mm | - | - | - |
| 1788628225 | 17.22° C | 61% | 1015.9 hPa | 0 mm | - | - | - |
| 1788627923 | 17.22° C | 61% | 1015.7 hPa | 0 mm | - | - | - |
| 1788627622 | 17.22° C | 61% | 1015.8 hPa | 0 mm | - | - | - |
| 1788627320 | 17.78° C | 61% | 1015.8 hPa | 0 mm | - | - | - |
| 1788627018 | 17.78° C | 61% | 1015.7 hPa | 0 mm | - | - | - |
| 1788626715 | 17.78° C | 61% | 1015.9 hPa | 0 mm | - | - | - |
| 1788626434 | 17.78° C | 60% | 1015.8 hPa | 0 mm | - | - | - |
| 1788626132 | 17.78° C | 59% | 1015.7 hPa | 0 mm | - | - | - |
| 1788625829 | 18.33° C | 59% | 1015.8 hPa | 0 mm | - | - | - |
| 1788625527 | 18.33° C | 58% | 1015.7 hPa | 0 mm | - | - | - |
| 1788625225 | 18.33° C | 57% | 1015.7 hPa | 0 mm | - | - | - |
| 1788624923 | 18.89° C | 56% | 1015.7 hPa | 0 mm | - | - | - |
| 1788624622 | 19.44° C | 54% | 1015.8 hPa | 0 mm | - | - | - |
| 1788624320 | 20° C | 53% | 1015.3 hPa | 0 mm | - | - | - |
| 1788624018 | 20° C | 53% | 1015.2 hPa | 0 mm | - | - | - |
| 1788623716 | 20° C | 52% | 1015.1 hPa | 0 mm | - | - | - |
| 1788623434 | 20° C | 52% | 1015.1 hPa | 0 mm | - | - | - |
| 1788623132 | 19.44° C | 52% | 1015 hPa | 0 mm | - | - | - |
| 1788622830 | 19.44° C | 52% | 1015 hPa | 0 mm | - | - | - |
| 1788622528 | 19.44° C | 52% | 1015 hPa | 0 mm | - | - | - |
| 1788622226 | 20° C | 51% | 1014.9 hPa | 0 mm | - | - | - |
| 1788621924 | 20° C | 50% | 1014.9 hPa | 0 mm | - | - | - |
| 1788621622 | 20° C | 50% | 1014.9 hPa | 0 mm | - | - | - |
* Rain latest hour (hover to see other rain measurements)
** Current wind speed in m/s (hover to see current wind gust speed)